Regional Weather Roundup
Issued by NWS

Home | Current Version | Previous Version | Graphics & Text | Print | Product List | Glossary On
Versions: 1 2 3 4 5 6 7 8 9 10 11 12 13 14 15 16 17 18 19 20 21 22 23 24 25 26 27 28 29 30 31 32 33 34 35 36 37 38 39 40 41 42 43 44 45 46 47 48 49 50
000
ASUS43 KLSX 260107
RWRMO

WEATHER SUMMARY FOR MISSOURI
NATIONAL WEATHER SERVICE SPRINGFIELD MO
800 PM CDT MON JUL 25 2016

NOTE: "FAIR" INDICATES FEW OR NO CLOUDS BELOW 12,000 FEET WITH NO
       SIGNIFICANT WEATHER AND/OR OBSTRUCTIONS TO VISIBILITY.
       CURRENT SKY AND/OR WEATHER CONDITIONS ARE NOT AVAILABLE FOR
       CHILLICOTHE AND FARMINGTON.

MOZ001>031-035>038-043-044-053-054-260200-
...NORTHERN AND WESTERN MISSOURI...

CITY           SKY/WX    TMP DP  RH WIND       PRES   REMARKS
KANSAS CTY INT MOCLDY    82  65  56 E8        30.04R
KANSAS C DTWN  CLOUDY    82  64  54 NE8       30.02R
LEE`S SUMMIT   CLOUDY    81  70  69 E5        30.04R
ST JOSEPH      PTCLDY    83  67  58 E6        30.03R
CHILLICOTHE      N/A     84  71  65 CALM      30.04R
KIRKSVILLE     CLOUDY    80  68  66 E3        30.05R

$$
MOZ066>068-077>081-088>096-101>105-260200-
...SOUTHWEST MISSOURI...

CITY           SKY/WX    TMP DP  RH WIND       PRES   REMARKS
SPRINGFIELD    PTCLDY    80  72  76 NE7       30.03R
JOPLIN         CLOUDY    79  74  84 N7        30.01R
BRANSON        PTCLDY    81  73  78 CALM      30.03R

$$
MOZ032>034-039>042-045>050-055>058-069>072-260200-
...CENTRAL MISSOURI...

CITY           SKY/WX    TMP DP  RH WIND       PRES   REMARKS
COLUMBIA       CLEAR     77  73  87 N5        30.03R
JEFFERSON CITY CLOUDY    81  69  67 NE5       30.01R
ROLLA          CLOUDY    79  72  79 N6        30.02R
SEDALIA        PTCLDY    80  72  76 CALM      30.04R
OSAGE BEACH    PTCLDY    78  74  87 CALM      30.03R

$$
MOZ051-052-059>065-260200-
...EAST CENTRAL MISSOURI...

CITY           SKY/WX    TMP DP  RH WIND       PRES   REMARKS
ST LOUIS INTL  MOCLDY    83  73  72 NE9       29.99R
SPIRIT OF STL  CLOUDY    83  74  74 N5        29.98R
ST CHARLES     PTCLDY    80  76  87 N7        29.98R

$$
MOZ072>076-082>087-097>100-106>115-260200-
...SOUTH CENTRAL AND SOUTHEAST MISSOURI...

CITY           SKY/WX    TMP DP  RH WIND       PRES   REMARKS
CAPE GIRARDEAU CLOUDY    80  77  90 CALM      29.96S
FARMINGTON     MOCLDY    82  75  78 SE3       30.01R
POPLAR BLUFF   MOCLDY    80  76  87 CALM      29.97R
WEST PLAINS    MOCLDY    81  69  67 N6        30.03R

$$



USA.gov is the U.S. government's official web portal to all federal, state and local government web resources and services.